User: anonymous   Login
Location: Copper Breaks State Park
(34.1132°N, 99.7492°W)
Time: 11:06:41
(UTC-05:00)
Language:

SL-16 R/B - Orbit

View from above orbital plane
View from above orbital plane
View from above satellite
View from above satellite

Ground track
Ground track

The orbit data is extracted from the following two-line orbital elements,

1 27006U 01056F   17179.84620855 -.00000045 +00000-0 -24418-5 0  9995
2 27006 099.3152 320.6644 0013755 279.9953 244.8809 13.70970384778094
Epoch (UTC): 28 June 2017 20:18:32
Eccentricity: 0.0013755
inclination: 99.3152°
perigee height: 986 km
apogee height: 1006 km
right ascension of ascending node: 320.6644°
argument of perigee: 279.9953°
revolutions per day: 13.70970384
mean anomaly at epoch: 244.8809°
orbit number at epoch: 77809

The dashed part of the orbit path shows where the satellite is in the earth's shadow,  

DLR